Weather in Mys Kamenny

Russia / Yamalo-Nenets Autonomous Okrug     68°30′45″N   73°34′04″E
temp.,
°C
wind,
m/s
gust,
m/s
humid.,
%
clouds,
%
prec.,
mm/h
press.,
hPa
HPBL,
m
27 february, sat
sat2723:00−22w129888 0.1 102125
02:00−26w1110026 0.0 102120
05:00−26s1110022 0.0 102220
08:00−24sse229980 0.0 102249
11:00−24s339980 0.0 102244
14:00−24sse34100100 0.0 1023125
17:00−25s45100100 0.0 102377
20:00−24sse57100100 0.0 1023177
28 february, sun
sun2823:00−25s58100100 0.0 1022188
02:00−25s6999100 0.0 1022201
05:00−25s6999100 0.0 1022235
08:00−25s71099100 0.0 1021242
11:00−25s71198100 0.0 1021261
14:00−24s71198100 0.0 1021278
17:00−24s81198100 0.0 1021254
20:00−24s81298100 0.0 1020266
1 march, mon
mon123:00−24s81297100 0.0 1020285
02:00−24s81397100 0.0 1018285
05:00−23s81396100 0.0 1018313
08:00−23s81395100 0.0 1016349
11:00−23ssw91494100 0.0 1015441
14:00−22ssw101493100 0.0 1013494
17:00−22ssw91493100 0.0 1012473
20:00−21ssw91692100 0.0 1011429
2 march, tue
tue223:00−22s101594100 0.0 1009398
02:00−22s101694100 0.0 1008376
05:00−22s111793100 0.0 1007352
08:00−22s111790100 0.0 1006400
11:00−20s121887100 0.0 1006468
14:00−18s131986100 0.0 1006530
17:00−18s121985100 0.0 1006528
20:00−18s121786100 0.0 1006516
3 march, wed
wed323:00−18s111687100 0.0 1006493
02:00−19s111789100 0.0 1006429
05:00−20s111693100 0.0 1006413
08:00−20s111694100 0.0 1006420
11:00−19s111694100 0.0 1006493
14:00−18s111793100 0.0 1007536
17:00−18s111693100 0.1 1006522
20:00−18s111593100 0.0 1006504